Time,TemperatureF,DewpointF,PressureIn,WindDirection,WindDirectionDegrees,WindSpeedMPH,WindSpeedGustMPH,Humidity,HourlyPrecipIn,Conditions,Clouds,dailyrainin,SoftwareType,DateUTC
2013-09-16 00:06:00,43.4,41.0,30.20,NNE,23,1.0,9.0,91,0.00,,,0.00,weatherlink.com 1.10,2013-09-16 04:06:00,
2013-09-16 00:21:00,42.9,40.0,30.21,NE,39,8.0,8.0,89,0.00,,,0.00,weatherlink.com 1.10,2013-09-16 04:21:00,
2013-09-16 00:36:00,42.0,38.0,30.22,NNE,25,6.0,10.0,86,0.00,,,0.00,weatherlink.com 1.10,2013-09-16 04:36:00,
2013-09-16 00:52:00,41.5,37.0,30.23,NW,325,5.0,10.0,84,0.00,,,0.00,weatherlink.com 1.10,2013-09-16 04:52:00,
2013-09-16 01:07:00,41.3,37.0,30.24,NW,319,3.0,9.0,84,0.00,,,0.00,weatherlink.com 1.10,2013-09-16 05:07:00,
2013-09-16 01:22:00,41.3,37.0,30.24,West,274,1.0,7.0,85,0.00,,,0.00,weatherlink.com 1.10,2013-09-16 05:22:00,
2013-09-16 01:37:00,41.5,37.0,30.24,ENE,59,1.0,7.0,84,0.00,,,0.00,weatherlink.com 1.10,2013-09-16 05:37:00,
2013-09-16 01:52:00,40.9,37.0,30.24,WNW,291,1.0,5.0,85,0.00,,,0.00,weatherlink.com 1.10,2013-09-16 05:52:00,
2013-09-16 02:07:00,40.1,36.0,30.24,SE,145,1.0,1.0,86,0.00,,,0.00,weatherlink.com 1.10,2013-09-16 06:07:00,
2013-09-16 02:22:00,39.2,36.0,30.25,West,281,1.0,4.0,89,0.00,,,0.00,weatherlink.com 1.10,2013-09-16 06:22:00,
2013-09-16 02:37:00,38.7,36.0,30.25,WNW,291,0.0,2.0,90,0.00,,,0.00,weatherlink.com 1.10,2013-09-16 06:37:00,
2013-09-16 02:52:00,38.5,36.0,30.26,West,278,1.0,4.0,91,0.00,,,0.00,weatherlink.com 1.10,2013-09-16 06:52:00,
2013-09-16 03:07:00,38.4,36.0,30.26,WNW,297,1.0,3.0,91,0.00,,,0.00,weatherlink.com 1.10,2013-09-16 07:07:00,
2013-09-16 03:22:00,37.9,36.0,30.27,WNW,284,1.0,3.0,92,0.00,,,0.00,weatherlink.com 1.10,2013-09-16 07:22:00,
2013-09-16 03:37:00,37.9,36.0,30.27,NW,314,1.0,4.0,92,0.00,,,0.00,weatherlink.com 1.10,2013-09-16 07:37:00,
2013-09-16 03:52:00,37.8,36.0,30.27,NW,314,0.0,2.0,92,0.00,,,0.00,weatherlink.com 1.10,2013-09-16 07:52:00,
2013-09-16 04:07:00,39.3,37.0,30.28,NW,308,0.0,5.0,91,0.00,,,0.00,weatherlink.com 1.10,2013-09-16 08:07:00,
2013-09-16 04:37:00,40.4,37.0,30.29,NNW,330,1.0,3.0,88,0.00,,,0.00,weatherlink.com 1.10,2013-09-16 08:37:00,
2013-09-16 04:52:00,40.4,37.0,30.29,North,360,0.0,2.0,88,0.00,,,0.00,weatherlink.com 1.10,2013-09-16 08:52:00,
2013-09-16 05:07:00,40.5,38.0,30.30,North,349,0.0,1.0,89,0.00,,,0.00,weatherlink.com 1.10,2013-09-16 09:07:00,
2013-09-16 05:22:00,41.2,37.0,30.30,NNE,20,0.0,6.0,86,0.00,,,0.00,weatherlink.com 1.10,2013-09-16 09:22:00,
2013-09-16 05:37:00,41.5,38.0,30.31,WNW,290,1.0,3.0,86,0.00,,,0.00,weatherlink.com 1.10,2013-09-16 09:37:00,
2013-09-16 05:52:00,41.3,37.0,30.32,North,359,0.0,5.0,85,0.00,,,0.00,weatherlink.com 1.10,2013-09-16 09:52:00,
2013-09-16 06:07:00,40.4,37.0,30.32,NW,314,0.0,2.0,86,0.00,,,0.00,weatherlink.com 1.10,2013-09-16 10:07:00,
2013-09-16 06:22:00,39.7,37.0,30.33,WNW,291,2.0,3.0,89,0.00,,,0.00,weatherlink.com 1.10,2013-09-16 10:22:00,
2013-09-16 06:37:00,39.3,37.0,30.33,NW,319,1.0,4.0,90,0.00,,,0.00,weatherlink.com 1.10,2013-09-16 10:37:00,
2013-09-16 06:52:00,38.9,37.0,30.34,NW,311,3.0,3.0,91,0.00,,,0.00,weatherlink.com 1.10,2013-09-16 10:52:00,
2013-09-16 07:07:00,38.8,36.0,30.34,WNW,294,1.0,3.0,91,0.00,,,0.00,weatherlink.com 1.10,2013-09-16 11:07:00,
2013-09-16 07:22:00,38.5,36.0,30.35,WNW,291,1.0,4.0,91,0.00,,,0.00,weatherlink.com 1.10,2013-09-16 11:22:00,
2013-09-16 07:37:00,38.4,36.0,30.36,NNW,330,2.0,4.0,92,0.00,,,0.00,weatherlink.com 1.10,2013-09-16 11:37:00,
2013-09-16 07:52:00,38.0,36.0,30.36,SE,132,0.0,1.0,92,0.00,,,0.00,weatherlink.com 1.10,2013-09-16 11:52:00,
2013-09-16 08:08:00,39.1,37.0,30.37,ESE,105,0.0,0.0,92,0.00,,,0.00,weatherlink.com 1.10,2013-09-16 12:08:00,
2013-09-16 08:23:00,41.3,39.0,30.37,ESE,105,0.0,2.0,90,0.00,,,0.00,weatherlink.com 1.10,2013-09-16 12:23:00,
2013-09-16 08:38:00,43.0,39.0,30.38,NNE,27,0.0,1.0,85,0.00,,,0.00,weatherlink.com 1.10,2013-09-16 12:38:00,
2013-09-16 08:53:00,43.7,39.0,30.38,NNW,327,0.0,3.0,83,0.00,,,0.00,weatherlink.com 1.10,2013-09-16 12:53:00,
2013-09-16 09:08:00,44.4,39.0,30.38,NW,314,0.0,5.0,82,0.00,,,0.00,weatherlink.com 1.10,2013-09-16 13:08:00,
2013-09-16 09:23:00,45.8,40.0,30.39,WNW,287,2.0,4.0,80,0.00,,,0.00,weatherlink.com 1.10,2013-09-16 13:23:00,
2013-09-16 09:38:00,45.9,38.0,30.39,WNW,284,2.0,5.0,73,0.00,,,0.00,weatherlink.com 1.10,2013-09-16 13:38:00,
2013-09-16 09:53:00,45.6,36.0,30.40,NE,54,0.0,6.0,68,0.00,,,0.00,weatherlink.com 1.10,2013-09-16 13:53:00,
2013-09-16 10:08:00,46.3,37.0,30.41,NE,47,1.0,5.0,69,0.00,,,0.00,weatherlink.com 1.10,2013-09-16 14:08:00,
2013-09-16 10:23:00,46.4,37.0,30.41,ESE,103,4.0,6.0,71,0.00,,,0.00,weatherlink.com 1.10,2013-09-16 14:23:00,
2013-09-16 10:38:00,46.6,37.0,30.41,East,88,3.0,10.0,69,0.00,,,0.00,weatherlink.com 1.10,2013-09-16 14:38:00,
2013-09-16 10:53:00,46.7,37.0,30.42,ENE,58,2.0,12.0,70,0.00,,,0.00,weatherlink.com 1.10,2013-09-16 14:53:00,
2013-09-16 11:08:00,47.1,38.0,30.43,NNW,332,2.0,6.0,70,0.00,,,0.00,weatherlink.com 1.10,2013-09-16 15:08:00,
2013-09-16 11:23:00,46.6,37.0,30.42,NW,305,2.0,7.0,70,0.00,,,0.00,weatherlink.com 1.10,2013-09-16 15:23:00,
2013-09-16 11:38:00,47.8,38.0,30.42,NNE,30,3.0,5.0,69,0.00,,,0.00,weatherlink.com 1.10,2013-09-16 15:38:00,
2013-09-16 11:53:00,48.3,39.0,30.41,NE,46,3.0,6.0,70,0.00,,,0.00,weatherlink.com 1.10,2013-09-16 15:53:00,
2013-09-16 12:08:00,48.8,39.0,30.41,NE,40,2.0,8.0,69,0.00,,,0.00,weatherlink.com 1.10,2013-09-16 16:08:00,
2013-09-16 12:23:00,49.5,39.0,30.42,NNW,335,2.0,4.0,67,0.00,,,0.00,weatherlink.com 1.10,2013-09-16 16:23:00,
2013-09-16 12:38:00,49.2,38.0,30.42,WNW,302,4.0,13.0,65,0.00,,,0.00,weatherlink.com 1.10,2013-09-16 16:38:00,
2013-09-16 12:53:00,50.1,39.0,30.41,South,174,2.0,5.0,67,0.00,,,0.00,weatherlink.com 1.10,2013-09-16 16:53:00,
2013-09-16 13:08:00,50.8,38.0,30.41,NE,40,2.0,7.0,63,0.00,,,0.00,weatherlink.com 1.10,2013-09-16 17:08:00,
2013-09-16 13:23:00,51.6,37.0,30.41,ENE,74,0.0,7.0,57,0.00,,,0.00,weatherlink.com 1.10,2013-09-16 17:23:00,
2013-09-16 13:38:00,51.4,37.0,30.41,WNW,290,4.0,6.0,59,0.00,,,0.00,weatherlink.com 1.10,2013-09-16 17:38:00,
2013-09-16 13:53:00,51.7,37.0,30.41,WNW,291,2.0,8.0,57,0.00,,,0.00,weatherlink.com 1.10,2013-09-16 17:53:00,
2013-09-16 14:08:00,52.1,35.0,30.41,ESE,111,3.0,6.0,53,0.00,,,0.00,weatherlink.com 1.10,2013-09-16 18:08:00,
2013-09-16 14:23:00,52.3,36.0,30.41,NW,307,1.0,5.0,54,0.00,,,0.00,weatherlink.com 1.10,2013-09-16 18:23:00,
2013-09-16 14:38:00,53.0,35.0,30.41,ENE,66,1.0,7.0,50,0.00,,,0.00,weatherlink.com 1.10,2013-09-16 18:38:00,
2013-09-16 14:53:00,53.0,37.0,30.41,SSE,163,2.0,6.0,54,0.00,,,0.00,weatherlink.com 1.10,2013-09-16 18:53:00,
2013-09-16 15:08:00,52.5,40.0,30.40,WSW,249,1.0,9.0,62,0.00,,,0.00,weatherlink.com 1.10,2013-09-16 19:08:00,
2013-09-16 15:23:00,52.9,41.0,30.40,SSE,166,5.0,7.0,64,0.00,,,0.00,weatherlink.com 1.10,2013-09-16 19:23:00,
2013-09-16 15:38:00,53.0,40.0,30.39,SSE,158,1.0,6.0,62,0.00,,,0.00,weatherlink.com 1.10,2013-09-16 19:38:00,
2013-09-16 15:53:00,53.3,41.0,30.39,SSE,166,1.0,7.0,63,0.00,,,0.00,weatherlink.com 1.10,2013-09-16 19:53:00,
2013-09-16 16:08:00,53.2,41.0,30.39,SSW,211,2.0,9.0,63,0.00,,,0.00,weatherlink.com 1.10,2013-09-16 20:08:00,
2013-09-16 16:23:00,53.8,42.0,30.39,WNW,291,2.0,8.0,64,0.00,,,0.00,weatherlink.com 1.10,2013-09-16 20:23:00,
2013-09-16 16:38:00,53.6,42.0,30.38,South,176,2.0,6.0,65,0.00,,,0.00,weatherlink.com 1.10,2013-09-16 20:38:00,
2013-09-16 16:53:00,53.5,42.0,30.39,WSW,256,3.0,6.0,66,0.00,,,0.00,weatherlink.com 1.10,2013-09-16 20:53:00,
2013-09-16 17:08:00,53.4,41.0,30.38,South,181,4.0,9.0,64,0.00,,,0.00,weatherlink.com 1.10,2013-09-16 21:08:00,
2013-09-16 17:24:00,53.4,42.0,30.38,ESE,122,2.0,6.0,65,0.00,,,0.00,weatherlink.com 1.10,2013-09-16 21:24:00,
2013-09-16 17:39:00,53.9,41.0,30.38,East,79,1.0,3.0,61,0.00,,,0.00,weatherlink.com 1.10,2013-09-16 21:39:00,
2013-09-16 17:54:00,53.6,41.0,30.38,SE,145,0.0,4.0,63,0.00,,,0.00,weatherlink.com 1.10,2013-09-16 21:54:00,
2013-09-16 18:09:00,54.5,42.0,30.38,SSE,162,1.0,3.0,63,0.00,,,0.00,weatherlink.com 1.10,2013-09-16 22:09:00,
2013-09-16 18:24:00,53.9,42.0,30.38,SSE,155,1.0,5.0,65,0.00,,,0.00,weatherlink.com 1.10,2013-09-16 22:24:00,
2013-09-16 18:39:00,52.9,42.0,30.38,SW,225,2.0,5.0,66,0.00,,,0.00,weatherlink.com 1.10,2013-09-16 22:39:00,
2013-09-16 18:54:00,52.1,42.0,30.38,SSE,158,0.0,4.0,69,0.00,,,0.00,weatherlink.com 1.10,2013-09-16 22:54:00,
2013-09-16 19:09:00,52.0,42.0,30.38,South,187,2.0,3.0,70,0.00,,,0.00,weatherlink.com 1.10,2013-09-16 23:09:00,
2013-09-16 19:24:00,49.6,42.0,30.38,WNW,288,0.0,1.0,75,0.00,,,0.00,weatherlink.com 1.10,2013-09-16 23:24:00,
2013-09-16 19:39:00,46.9,41.0,30.38,WNW,287,0.0,0.0,81,0.00,,,0.00,weatherlink.com 1.10,2013-09-16 23:39:00,
2013-09-16 19:54:00,44.9,41.0,30.38,WNW,285,0.0,0.0,85,0.00,,,0.00,weatherlink.com 1.10,2013-09-16 23:54:00,
2013-09-16 20:09:00,42.9,40.0,30.38,WNW,285,0.0,0.0,88,0.00,,,0.00,weatherlink.com 1.10,2013-09-17 00:09:00,
2013-09-16 20:24:00,41.7,39.0,30.38,WNW,285,0.0,0.0,91,0.00,,,0.00,weatherlink.com 1.10,2013-09-17 00:24:00,
2013-09-16 20:39:00,40.6,39.0,30.38,WNW,285,0.0,0.0,92,0.00,,,0.00,weatherlink.com 1.10,2013-09-17 00:39:00,
2013-09-16 20:54:00,39.9,38.0,30.39,WNW,285,0.0,0.0,93,0.00,,,0.00,weatherlink.com 1.10,2013-09-17 00:54:00,
2013-09-16 21:09:00,38.8,37.0,30.39,WNW,285,0.0,0.0,93,0.00,,,0.00,weatherlink.com 1.10,2013-09-17 01:09:00,
2013-09-16 21:24:00,38.1,36.0,30.39,WNW,285,0.0,0.0,93,0.00,,,0.00,weatherlink.com 1.10,2013-09-17 01:24:00,
2013-09-16 21:39:00,37.9,36.0,30.39,WNW,285,0.0,0.0,94,0.00,,,0.00,weatherlink.com 1.10,2013-09-17 01:39:00,
2013-09-16 21:54:00,38.2,37.0,30.39,WNW,285,0.0,1.0,94,0.00,,,0.00,weatherlink.com 1.10,2013-09-17 01:54:00,
2013-09-16 22:09:00,38.0,36.0,30.39,WNW,285,0.0,0.0,93,0.00,,,0.00,weatherlink.com 1.10,2013-09-17 02:09:00,
2013-09-16 22:24:00,37.8,36.0,30.39,WNW,285,0.0,0.0,94,0.00,,,0.00,weatherlink.com 1.10,2013-09-17 02:24:00,
2013-09-16 22:39:00,37.2,36.0,30.39,ESE,122,0.0,0.0,94,0.00,,,0.00,weatherlink.com 1.10,2013-09-17 02:39:00,
2013-09-16 22:54:00,37.2,36.0,30.39,ESE,123,0.0,0.0,94,0.00,,,0.00,weatherlink.com 1.10,2013-09-17 02:54:00,
2013-09-16 23:09:00,36.5,35.0,30.40,ESE,122,0.0,0.0,94,0.00,,,0.00,weatherlink.com 1.10,2013-09-17 03:09:00,
2013-09-16 23:24:00,36.0,35.0,30.40,ESE,122,0.0,0.0,94,0.00,,,0.00,weatherlink.com 1.10,2013-09-17 03:24:00,
2013-09-16 23:39:00,35.8,34.0,30.40,ESE,122,0.0,0.0,94,0.00,,,0.00,weatherlink.com 1.10,2013-09-17 03:39:00,
2013-09-16 23:54:00,35.7,34.0,30.40,ESE,122,0.0,0.0,94,0.00,,,0.00,weatherlink.com 1.10,2013-09-17 03:54:00,